Regional Weather Roundup
Issued by NWS

Home | Current Version | Previous Version | Text Only | Print | Product List | Glossary Off
Versions: 1 2 3 4 5 6 7 8 9 10 11 12 13 14 15 16 17 18 19 20 21 22 23 24 25 26 27 28 29 30 31 32 33 34 35 36 37 38 39 40 41 42 43 44 45 46 47 48 49 50

537
ASUS44 KLIX 150901
RWRLA
LOUISIANA WEATHER ROUNDUP
NATIONAL WEATHER SERVICE NEW ORLEANS LA
400 AM CDT MON SEP 15 2014

NOTE: "FAIR" INDICATES FEW OR NO CLOUDS BELOW 12,000 FEET WITH NO
      SIGNIFICANT WEATHER AND/OR OBSTRUCTIONS TO VISIBILITY.
      SKY/WX - SKY CONDITION AND SIGNIFICANT WEATHER.
      TMP - AIR TEMPERATURE.    DP   - DEWPOINT TEMPERATURE.
      RH  - RELATIVE HUMIDITY.  PRES - PRESSURE.
      HX  - HEAT INDEX.         WCI  - WIND CHILL INDEX.

*  THESE STATIONS ARE NOT NWS OR FAA STATIONS AND ARE NOT UNDER
   NWS QUALITY CONTROL.

LAZ040-048-061>063-065-066-069-151000-
SOUTHEAST LOUISIANA

CITY           SKY/WX    TMP DP  RH WIND       PRES   REMARKS
N.O. AUDUBON   NOT AVBL
N.O. INTL ARPT PTCLDY    80  75  84 NE3       30.05F
N.O. LAKEFRONT CLEAR     82  77  84 NE10      30.06F
N.O. DOWNTOWN* FAIR      81  73  78 CALM      30.06F
SLIDELL        CLEAR     74  72  93 N3        30.06F
BATON ROUGE    CLEAR     73  70  90 NE3       30.08S
BOOTHVILLE     CLEAR     81  77  88 SE3       30.05F
BELLE CHASSE   PTCLDY    76  72  87 CALM      30.05F
BOGALUSA*      FAIR      74  70  88 CALM      30.09F FOG
GALLIANO*      NOT AVBL
NEW ROADS*     FAIR      71  70  96 CALM      30.09R FOG
GONZALES*      FAIR      74  74 100 CALM      30.06F
HAMMOND*       NOT AVBL
HOUMA*         CLEAR     77  74  90 NE5       30.05F
PORT FOURCHON* MOSUNNY   81  73  78 E5        30.07S

$$

LAZ041-044-053-054-151000-
SOUTHWEST LOUISIANA

CITY           SKY/WX    TMP DP  RH WIND       PRES   REMARKS
LAKE CHARLES   CLEAR     71  68  90 NE6       30.08S
LAFAYETTE      CLEAR     71  70  96 N5        30.08S
PATTERSON      CLEAR     73  73 100 N3        30.08S
SALT POINT       N/A     78  75  90 VRB3      30.04F
NEW IBERIA     CLEAR     73  71  93 NE7       30.07S
CHENAULT AIRPK CLEAR     70  67  91 NE3       30.09S

$$

LAZ027-028-151000-
CENTRAL LOUISIANA

CITY           SKY/WX    TMP DP  RH WIND       PRES   REMARKS
FORT POLK      CLEAR     69  66  90 NE5       30.10S
ALEXANDRIA INT CLEAR     66  65  96 CALM      30.09F FOG
ALEXANDRIA     CLEAR     69  66  90 CALM      30.10F

$$

LAZ001-002-151000-
NORTHWEST LOUISIANA

CITY           SKY/WX    TMP DP  RH WIND       PRES   REMARKS
SHREVEPORT     MOCLDY    68  65  90 CALM      30.11F
BARKSDALE AFB  NOT AVBL
DTN SHREVEPORT PTCLDY    68  65  90 CALM      30.12S

$$

LAZ014-016-151000-
NORTHEAST LOUISIANA

CITY           SKY/WX    TMP DP  RH WIND       PRES   REMARKS
MONROE         PTCLDY    66  63  90 NE5       30.12F
TALLULAH       CLEAR     70  66  87 NE5       30.12S

$$




USA.gov is the U.S. government's official web portal to all federal, state and local government web resources and services.